timestamp,wind_dir_avg,wind_spd_avg,wind_spd_max_dir,wind_spd_gust,battery_voltage,lat,long
2023-08-13 00:04:00+00:00,245.0,10.5,251.0,14.01,12.65,47.59359,-54.27349
2023-08-13 00:14:01+00:00,255.0,10.33,254.0,14.31,12.41,47.59359,-54.27349
2023-08-13 00:24:01+00:00,248.0,8.49,248.0,9.73,12.41,47.59359,-54.27349
2023-08-13 00:34:01+00:00,249.0,11.11,251.0,15.03,12.41,47.59359,-54.27349
2023-08-13 00:44:01+00:00,254.0,9.61,256.0,13.15,12.41,47.59359,-54.27349
2023-08-13 00:54:01+00:00,251.0,8.65,249.0,10.63,12.41,47.59359,-54.27349
2023-08-13 01:04:01+00:00,245.0,10.03,249.0,14.62,12.41,47.59359,-54.27349
2023-08-13 01:14:01+00:00,231.0,9.46,239.0,12.74,12.41,47.59359,-54.27349
2023-08-13 01:24:01+00:00,237.0,8.82,237.0,10.01,12.41,47.59359,-54.27349
2023-08-13 01:34:01+00:00,243.0,8.49,241.0,9.3,12.41,47.59359,-54.27349
2023-08-13 01:44:01+00:00,251.0,7.88,252.0,9.08,12.41,47.59359,-54.27349
2023-08-13 01:54:01+00:00,255.0,7.95,257.0,8.63,12.41,47.59359,-54.27349
2023-08-13 02:04:01+00:00,259.0,7.2,258.0,8.14,12.41,47.59359,-54.27349
2023-08-13 02:14:01+00:00,269.0,6.41,266.0,7.34,12.41,47.59359,-54.27349
2023-08-13 02:24:01+00:00,256.0,6.12,249.0,6.97,12.41,47.59359,-54.27349
2023-08-13 02:34:01+00:00,256.0,5.76,256.0,6.55,12.41,47.59359,-54.27349
2023-08-13 02:44:01+00:00,243.0,6.14,240.0,7.52,12.41,47.59359,-54.27349
2023-08-13 02:54:01+00:00,241.0,5.49,237.0,6.77,12.41,47.59359,-54.27349
2023-08-13 03:04:01+00:00,248.0,5.94,250.0,7.25,12.41,47.59359,-54.27349
2023-08-13 03:14:01+00:00,251.0,7.59,253.0,8.86,12.41,47.59359,-54.27349
2023-08-13 03:24:01+00:00,252.0,6.83,256.0,8.39,12.41,47.59359,-54.27349
2023-08-13 03:34:01+00:00,242.0,7.18,237.0,8.17,12.41,47.59359,-54.27349
2023-08-13 03:44:01+00:00,232.0,5.99,237.0,7.13,12.41,47.59359,-54.27349
2023-08-13 03:54:01+00:00,225.0,7.1,230.0,8.72,12.41,47.59359,-54.27349
2023-08-13 04:04:01+00:00,225.0,8.27,220.0,9.14,12.41,47.59359,-54.27349
2023-08-13 04:14:00+00:00,231.0,7.67,230.0,8.95,12.41,47.59359,-54.27349
2023-08-13 04:24:00+00:00,231.0,7.82,234.0,8.63,12.41,47.59359,-54.27349
2023-08-13 04:34:00+00:00,230.0,8.97,240.0,10.37,12.41,47.59359,-54.27349
2023-08-13 04:44:00+00:00,235.0,8.87,237.0,9.77,12.41,47.59359,-54.27349
2023-08-13 04:54:00+00:00,237.0,9.18,235.0,10.2,12.41,47.59359,-54.27349
2023-08-13 05:04:00+00:00,239.0,8.23,241.0,9.1,12.41,47.59359,-54.27349
2023-08-13 05:14:00+00:00,238.0,8.94,241.0,9.71,12.41,47.59359,-54.27349
2023-08-13 05:24:00+00:00,239.0,8.54,233.0,10.01,12.41,47.59359,-54.27349
2023-08-13 05:34:00+00:00,236.0,8.95,237.0,10.11,12.41,47.59359,-54.27349
2023-08-13 05:44:00+00:00,240.0,9.36,238.0,10.32,12.41,47.59359,-54.27349
2023-08-13 05:54:00+00:00,241.0,8.77,241.0,9.57,12.41,47.59359,-54.27349
2023-08-13 06:04:00+00:00,249.0,8.03,248.0,8.75,12.41,47.59359,-54.27349
2023-08-13 06:14:00+00:00,240.0,7.51,238.0,8.4,12.33,47.59359,-54.27349
2023-08-13 06:24:00+00:00,237.0,7.72,231.0,9.08,12.33,47.59359,-54.27349
2023-08-13 06:34:00+00:00,234.0,7.19,231.0,8.02,12.33,47.59359,-54.27349
2023-08-13 06:44:00+00:00,237.0,6.1,243.0,7.89,12.33,47.59359,-54.27349
2023-08-13 06:54:00+00:00,230.0,6.27,224.0,7.3,12.33,47.59359,-54.27349
2023-08-13 07:04:00+00:00,231.0,7.56,230.0,9.01,12.33,47.59359,-54.27349
2023-08-13 07:14:00+00:00,231.0,8.61,230.0,10.11,12.33,47.59359,-54.27349
2023-08-13 07:24:00+00:00,232.0,8.24,231.0,9.49,12.33,47.59359,-54.27349
2023-08-13 07:34:00+00:00,231.0,8.5,225.0,9.74,12.33,47.59359,-54.27349
2023-08-13 07:44:00+00:00,231.0,8.74,230.0,9.74,12.33,47.59359,-54.27349
2023-08-13 07:54:00+00:00,231.0,8.7,231.0,9.89,12.33,47.59359,-54.27349
2023-08-13 08:04:00+00:00,231.0,8.19,230.0,9.45,12.33,47.59359,-54.27349
2023-08-13 08:14:00+00:00,233.0,8.12,229.0,8.99,12.25,47.59359,-54.27349
2023-08-13 08:24:00+00:00,235.0,7.29,233.0,8.1,12.25,47.59359,-54.27349
2023-08-13 08:34:00+00:00,234.0,7.45,236.0,8.44,12.25,47.59359,-54.27349
2023-08-13 08:44:00+00:00,241.0,7.76,239.0,8.78,12.25,47.59359,-54.27349
2023-08-13 08:54:00+00:00,244.0,7.53,239.0,8.42,12.25,47.59359,-54.27349
2023-08-13 09:04:00+00:00,235.0,7.89,238.0,9.1,12.25,47.59359,-54.27349
2023-08-13 09:14:00+00:00,233.0,7.69,238.0,9.26,12.33,47.59359,-54.27349
2023-08-13 09:24:00+00:00,232.0,6.97,237.0,7.95,12.33,47.59359,-54.27349
2023-08-13 09:34:00+00:00,237.0,8.07,238.0,9.14,12.33,47.59359,-54.27349
2023-08-13 09:44:00+00:00,240.0,8.54,241.0,9.61,12.33,47.59359,-54.27349
2023-08-13 09:54:00+00:00,237.0,7.76,237.0,8.36,12.33,47.59359,-54.27349
2023-08-13 10:04:00+00:00,239.0,8.62,239.0,9.41,12.33,47.59359,-54.27349
2023-08-13 10:14:00+00:00,237.0,7.81,236.0,8.9,13.29,47.59359,-54.27349
2023-08-13 10:24:00+00:00,241.0,8.22,239.0,9.06,13.29,47.59359,-54.27349
2023-08-13 10:34:00+00:00,242.0,7.81,245.0,8.41,13.29,47.59359,-54.27349
2023-08-13 10:44:00+00:00,240.0,7.49,242.0,8.65,13.29,47.59359,-54.27349
2023-08-13 10:54:00+00:00,241.0,7.49,239.0,8.86,13.29,47.59359,-54.27349
2023-08-13 11:04:00+00:00,233.0,7.75,235.0,8.67,13.29,47.59359,-54.27349
2023-08-13 11:14:01+00:00,234.0,7.01,231.0,7.89,13.29,47.59359,-54.27349
2023-08-13 11:24:01+00:00,232.0,7.02,236.0,8.26,13.29,47.59359,-54.27349
2023-08-13 11:34:01+00:00,236.0,8.36,233.0,9.52,13.29,47.59359,-54.27349
2023-08-13 11:44:01+00:00,237.0,8.21,237.0,9.13,13.29,47.59359,-54.27349
2023-08-13 11:54:01+00:00,239.0,7.74,236.0,8.67,13.29,47.59359,-54.27349
2023-08-13 12:04:01+00:00,241.0,8.11,237.0,9.36,13.29,47.59359,-54.27349
2023-08-13 12:14:00+00:00,237.0,7.7,239.0,9.05,13.68,47.59359,-54.27349
2023-08-13 12:24:00+00:00,245.0,6.98,241.0,7.68,13.68,47.59359,-54.27349
2023-08-13 12:34:00+00:00,241.0,7.66,242.0,8.36,13.68,47.59359,-54.27349
2023-08-13 12:44:00+00:00,244.0,6.95,238.0,8.18,13.68,47.59359,-54.27349
2023-08-13 12:54:00+00:00,252.0,7.68,248.0,8.47,13.68,47.59359,-54.27349
2023-08-13 13:04:00+00:00,259.0,6.71,263.0,7.22,13.68,47.59359,-54.27349
2023-08-13 13:14:00+00:00,258.0,7.24,258.0,8.14,14.32,47.59359,-54.27349
2023-08-13 13:24:00+00:00,256.0,7.8,252.0,9.11,14.32,47.59359,-54.27349
2023-08-13 13:34:00+00:00,257.0,9.07,259.0,10.87,14.32,47.59359,-54.27349
2023-08-13 13:44:00+00:00,256.0,8.6,253.0,9.22,14.32,47.59359,-54.27349
2023-08-13 13:54:00+00:00,257.0,8.16,263.0,9.05,14.32,47.59359,-54.27349
2023-08-13 14:04:00+00:00,255.0,7.36,257.0,8.14,14.32,47.59359,-54.27349
2023-08-13 14:14:00+00:00,258.0,8.73,255.0,9.66,14.08,47.59359,-54.27349
2023-08-13 14:24:00+00:00,247.0,6.46,249.0,7.34,14.08,47.59359,-54.27349
2023-08-13 14:34:00+00:00,239.0,8.08,239.0,8.84,14.08,47.59359,-54.27349
2023-08-13 14:44:00+00:00,242.0,6.13,243.0,7.08,14.08,47.59359,-54.27349
2023-08-13 14:54:00+00:00,240.0,6.47,231.0,7.55,14.08,47.59359,-54.27349
2023-08-13 15:04:00+00:00,242.0,7.16,239.0,7.93,14.08,47.59359,-54.27349
2023-08-13 15:14:01+00:00,266.0,9.33,266.0,11.1,14.4,47.59359,-54.27349
2023-08-13 15:24:01+00:00,260.0,8.67,266.0,11.62,14.4,47.59359,-54.27349
2023-08-13 15:34:01+00:00,252.0,6.58,250.0,7.29,14.4,47.59359,-54.27349
2023-08-13 15:44:01+00:00,239.0,6.71,242.0,8.29,14.4,47.59359,-54.27349
2023-08-13 15:54:01+00:00,216.0,8.65,214.0,9.92,14.4,47.59359,-54.27349
2023-08-13 16:04:01+00:00,214.0,7.7,216.0,8.8,14.4,47.59359,-54.27349
2023-08-13 16:14:01+00:00,208.0,8.83,201.0,10.37,13.53,47.59359,-54.27349
2023-08-13 16:24:01+00:00,212.0,9.25,209.0,10.46,13.53,47.59359,-54.27349
2023-08-13 16:34:01+00:00,217.0,9.97,216.0,10.76,13.53,47.59359,-54.27349
2023-08-13 16:44:01+00:00,214.0,8.75,216.0,9.98,13.53,47.59359,-54.27349
2023-08-13 16:54:01+00:00,212.0,7.02,215.0,8.75,13.53,47.59359,-54.27349
2023-08-13 17:04:01+00:00,216.0,8.16,216.0,9.4,13.53,47.59359,-54.27349
2023-08-13 17:14:00+00:00,221.0,8.4,221.0,9.84,14.32,47.59359,-54.27349
2023-08-13 17:24:00+00:00,218.0,9.39,219.0,11.36,14.32,47.59359,-54.27349
2023-08-13 17:34:00+00:00,210.0,9.24,209.0,10.87,14.32,47.59359,-54.27349
2023-08-13 17:44:00+00:00,212.0,10.0,208.0,11.34,14.32,47.59359,-54.27349
2023-08-13 17:54:00+00:00,217.0,9.85,225.0,11.23,14.32,47.59359,-54.27349
2023-08-13 18:04:00+00:00,213.0,10.63,212.0,12.98,14.32,47.59359,-54.27349
2023-08-13 18:14:01+00:00,212.0,9.78,215.0,10.7,13.92,47.59359,-54.27349
2023-08-13 18:24:01+00:00,214.0,10.19,220.0,11.77,13.92,47.59359,-54.27349
2023-08-13 18:34:01+00:00,212.0,11.59,213.0,12.52,13.92,47.59359,-54.27349
2023-08-13 18:44:01+00:00,213.0,9.99,212.0,11.34,13.92,47.59359,-54.27349
2023-08-13 18:54:01+00:00,211.0,11.01,213.0,12.12,13.92,47.59359,-54.27349
2023-08-13 19:04:01+00:00,207.0,10.52,212.0,12.28,13.92,47.59359,-54.27349
2023-08-13 19:14:00+00:00,212.0,10.17,214.0,11.29,13.76,47.59359,-54.27349
2023-08-13 19:24:00+00:00,210.0,9.7,214.0,11.13,13.76,47.59359,-54.27349
2023-08-13 19:34:00+00:00,209.0,11.15,208.0,12.32,13.76,47.59359,-54.27349
2023-08-13 19:44:00+00:00,212.0,10.43,211.0,11.38,13.76,47.59359,-54.27349
2023-08-13 19:54:00+00:00,211.0,10.9,215.0,12.17,13.76,47.59359,-54.27349
2023-08-13 20:04:00+00:00,207.0,9.3,205.0,10.76,13.76,47.59359,-54.27349
2023-08-13 20:14:00+00:00,207.0,8.9,211.0,10.17,13.53,47.59359,-54.27349
2023-08-13 20:24:00+00:00,209.0,10.6,210.0,12.06,13.53,47.59359,-54.27349
2023-08-13 20:34:00+00:00,208.0,8.94,210.0,10.12,13.53,47.59359,-54.27349
2023-08-13 20:44:00+00:00,207.0,8.67,203.0,10.09,13.53,47.59359,-54.27349
2023-08-13 20:54:00+00:00,210.0,7.16,213.0,8.21,13.53,47.59359,-54.27349
2023-08-13 21:04:00+00:00,206.0,6.73,209.0,7.52,13.53,47.59359,-54.27349
2023-08-13 21:14:01+00:00,210.0,8.1,211.0,9.24,13.37,47.59359,-54.27349
2023-08-13 21:24:01+00:00,210.0,7.94,214.0,8.79,13.37,47.59359,-54.27349
2023-08-13 21:34:01+00:00,210.0,7.18,215.0,8.05,13.37,47.59359,-54.27349
2023-08-13 21:44:01+00:00,218.0,5.95,219.0,6.85,13.37,47.59359,-54.27349
2023-08-13 21:54:01+00:00,220.0,4.5,215.0,5.03,13.37,47.59359,-54.27349
2023-08-13 22:04:01+00:00,215.0,4.69,217.0,5.17,13.37,47.59359,-54.27349
2023-08-13 22:14:00+00:00,227.0,4.9,222.0,5.82,13.13,47.59359,-54.27349
2023-08-13 22:24:00+00:00,237.0,4.36,236.0,4.78,13.13,47.59359,-54.27349
2023-08-13 22:34:00+00:00,245.0,5.13,243.0,5.58,13.13,47.59359,-54.27349
2023-08-13 22:44:00+00:00,233.0,5.03,237.0,5.56,13.13,47.59359,-54.27349
2023-08-13 22:54:00+00:00,240.0,4.16,241.0,4.46,13.13,47.59359,-54.27349
2023-08-13 23:04:00+00:00,232.0,3.62,231.0,4.17,13.13,47.59359,-54.27349
2023-08-13 23:14:00+00:00,194.0,3.07,195.0,3.77,12.65,47.59359,-54.27349
2023-08-13 23:24:00+00:00,219.0,4.1,220.0,4.83,12.65,47.59359,-54.27349
2023-08-13 23:34:00+00:00,222.0,5.19,225.0,5.58,12.65,47.59359,-54.27349
2023-08-13 23:44:00+00:00,217.0,5.03,220.0,5.46,12.65,47.59359,-54.27349
2023-08-13 23:54:00+00:00,223.0,4.27,233.0,5.12,12.65,47.59359,-54.27349
